Theta_e
306 306 308 307 308 307 306 305 305 305 304 303 304 304 304 303 303 303 310 309 310 307 307 315 312 314 315 317 318 319 323 325 325 328 328 327 328 325 326 325 326 325 326 328 326
310 309 307 308 308 308 308 309 307 305 305 305 305 305 305 304 303 311 310 308 307 307 310 315 313 314 316 318 318 321 321 322 323 324 325 324 324 325 326 326 325 325 324 324 324
312 312 311 310 308 308 309 309 309 307 305 304 305 305 305 302 316 320 316 310 304 306 316 315 315 315 317 318 319 319 321 321 321 321 322 323 322 321 322 323 323 324 324 324 323
311 310 310 312 310 308 309 309 312 310 306 302 304 305 303 306 321 321 309 312 304 310 316 316 316 316 319 320 319 320 320 320 321 321 320 320 320 320 320 321 321 321 321 321 322
313 312 311 309 312 311 308 311 311 313 313 306 302 302 302 316 317 313 308 307 306 313 315 316 316 317 319 320 319 320 321 320 320 320 319 319 320 320 320 320 320 319 320 320 320
312 311 311 309 308 312 311 308 312 313 313 313 303 302 309 317 316 311 313 309 315 315 316 316 317 317 318 319 320 320 320 320 320 319 319 319 319 319 319 319 319 319 320 320 321
310 309 309 308 307 309 312 310 310 313 313 314 308 303 313 315 316 315 314 316 315 316 316 315 317 317 318 319 318 319 319 319 320 319 320 319 320 320 320 320 320 320 320 320 320
306 306 306 306 306 307 313 311 308 311 314 314 311 312 316 310 315 318 316 314 315 314 317 318 317 317 318 319 318 319 319 320 321 320 320 318 319 321 320 319 319 319 319 319 319
302 303 304 305 305 306 312 312 309 311 315 315 313 316 319 311 315 318 316 314 315 317 317 317 317 318 318 319 319 319 320 320 321 320 319 319 320 320 319 319 319 319 319 319 320
302 303 305 306 307 308 312 311 309 314 315 315 316 319 318 313 315 316 317 315 315 316 317 316 318 319 319 319 320 320 320 319 319 320 319 319 320 320 320 320 320 320 320 320 319
309 309 307 308 308 310 312 312 321 321 318 321 320 319 316 316 316 316 317 315 316 318 319 318 319 320 319 319 319 319 319 319 320 320 320 320 320 321 320 320 320 320 320 320 320
309 309 309 310 310 312 308 316 319 318 319 320 318 318 317 318 317 317 317 317 318 320 319 320 319 319 320 320 319 319 319 319 319 320 320 320 321 321 322 321 321 320 320 320 320
308 308 309 311 312 313 315 315 318 318 321 319 317 317 317 318 319 319 316 317 319 319 319 320 320 318 318 318 318 318 318 319 320 320 320 321 322 324 324 322 321 320 320 320 320
311 310 312 312 315 316 315 314 317 318 324 321 320 319 317 318 319 319 317 317 318 319 319 319 319 317 318 318 319 320 320 320 320 321 322 323 324 324 323 323 323 321 321 321 320
311 312 313 313 314 316 317 315 316 318 331 322 320 317 318 319 319 318 317 317 318 318 319 319 319 319 319 320 320 320 320 320 321 322 323 323 324 324 324 323 322 321 319 319 319
311 312 313 312 309 315 315 315 318 325 330 321 320 320 319 319 317 318 318 316 317 318 319 320 319 319 320 320 319 320 320 321 321 322 324 324 325 324 323 321 320 320 320 319 320
312 313 311 314 315 314 316 319 326 324 322 321 320 320 319 320 318 319 319 319 319 319 318 319 319 320 319 320 321 321 323 324 324 325 325 323 320 321 320 320 320 320 319 320 320
314 312 311 314 315 315 318 323 325 321 322 319 319 319 320 320 319 319 319 320 320 320 320 320 322 321 320 320 321 321 322 325 326 324 324 323 320 319 319 319 319 319 320 319 319
314 317 316 315 316 318 320 325 323 322 319 319 320 320 321 320 319 319 320 320 319 319 318 319 320 320 319 319 319 320 320 321 323 321 320 319 319 319 320 320 319 318 317 317 318
313 318 316 314 317 319 322 318 321 318 317 318 320 320 321 322 321 321 321 320 319 318 318 320 322 321 320 319 319 319 318 321 321 322 323 318 317 317 320 319 317 317 317 316 315
316 319 316 317 319 320 322 321 319 317 317 318 319 320 320 320 320 320 321 319 318 319 318 319 320 321 318 318 318 319 320 318 318 320 323 321 318 318 318 318 317 318 317 316 317
317 322 316 318 322 321 321 320 315 317 318 319 319 320 320 319 319 320 319 319 318 317 318 319 319 321 319 319 317 317 317 318 322 322 319 320 319 318 317 317 317 316 316 316 316
316 317 316 317 323 322 320 319 317 318 319 319 319 319 319 320 320 319 318 318 318 318 317 318 320 320 320 319 318 317 315 315 317 318 319 322 319 317 317 317 316 316 316 316 317
315 319 317 316 317 320 319 319 319 317 317 317 318 318 318 319 318 319 317 316 315 315 315 315 320 321 322 321 320 318 316 316 317 319 319 319 318 317 317 317 316 316 317 316 316
315 318 315 320 319 317 317 318 318 318 316 316 317 316 316 318 318 317 317 318 315 314 314 316 320 319 318 319 318 317 315 315 316 316 317 316 316 316 316 316 317 316 316 316 315
313 314 315 315 315 316 313 318 317 315 315 316 315 314 315 316 316 317 316 317 318 317 315 315 319 317 319 317 316 315 315 315 315 315 315 315 315 316 317 317 316 316 315 314 313
312 311 312 313 315 314 316 314 314 312 313 313 313 313 314 314 312 313 313 314 315 316 316 316 318 318 317 316 316 315 314 315 314 315 316 316 317 317 317 317 315 314 313 313 312
Wind_Speed
24 22 21 19 17 15 13 12 12 11 11 9 11 10 12 11 12 15 19 12 14 7 12 10 18 18 17 20 21 18 14 19 23 22 21 9 10 15 17 11 10 12 14 12 6
25 26 24 22 18 16 14 13 11 11 11 9 10 10 10 13 14 21 19 20 19 14 12 16 21 21 22 22 20 15 15 22 21 19 11 15 20 19 13 17 18 18 17 16 14
25 25 25 25 21 17 15 13 11 10 11 10 9 9 8 11 12 2 5 11 17 20 13 13 17 22 22 20 22 21 19 19 19 5 10 15 16 17 15 17 20 19 18 16 14
26 27 27 24 24 20 16 13 11 10 10 10 8 7 6 4 4 7 10 11 16 21 11 14 18 22 18 18 19 17 22 22 11 9 15 17 19 17 19 19 18 17 18 19 20
26 29 29 28 24 23 18 13 11 10 10 10 8 6 4 6 9 7 3 11 17 15 16 16 19 21 16 15 18 16 14 16 16 15 15 16 17 17 19 18 14 15 17 17 18
26 29 30 29 26 23 21 14 12 11 10 8 7 4 3 11 0 1 6 14 12 13 15 15 15 18 12 10 13 16 19 12 14 16 15 16 16 17 18 11 14 16 16 17 16
28 28 28 28 27 26 21 17 12 12 12 8 5 4 10 10 4 6 8 7 10 10 11 11 8 10 8 11 12 8 12 13 15 15 13 13 16 18 22 19 16 16 14 15 16
28 27 26 27 28 26 23 18 13 12 12 7 4 3 8 7 7 9 8 6 10 9 8 8 7 12 12 3 8 14 13 14 17 16 11 6 13 7 6 4 12 13 15 15 17
26 28 26 26 27 27 25 17 11 11 9 5 1 5 8 6 9 11 10 9 10 9 6 8 9 11 9 11 12 11 13 16 9 11 9 13 11 3 2 10 15 17 17 17 17
27 27 28 27 27 27 25 13 8 9 5 4 6 7 9 11 12 12 11 9 12 10 9 11 10 10 12 12 12 10 16 13 7 5 11 13 16 13 16 17 16 17 17 17 18
28 27 29 27 27 27 20 3 2 4 10 13 2 6 8 9 10 12 12 12 13 12 13 14 10 12 15 13 15 10 13 11 8 4 9 14 16 16 16 19 20 20 19 19 17
29 28 28 26 24 23 8 8 7 6 11 16 10 13 4 7 12 14 13 13 14 13 13 9 12 14 7 6 7 11 13 14 12 10 10 14 17 16 17 20 23 22 19 21 20
29 30 30 25 21 10 5 8 6 7 8 8 8 11 14 11 11 16 18 18 12 14 14 14 3 4 6 10 12 14 14 13 12 10 12 18 21 21 16 13 12 13 17 17 19
32 37 29 17 4 2 5 4 4 8 6 10 11 7 13 13 7 11 17 16 9 14 14 12 14 8 9 10 11 13 7 9 8 12 14 14 15 18 17 15 14 15 14 13 15
36 29 16 8 4 1 1 1 4 4 3 11 8 7 15 18 12 13 14 14 15 11 7 15 9 10 11 11 5 10 13 9 14 16 18 19 12 15 15 14 5 11 15 18 21
30 19 9 6 5 3 3 5 3 7 2 7 7 11 15 14 7 11 13 13 7 14 11 19 2 6 10 7 6 10 12 16 18 15 15 20 17 11 4 11 11 13 18 13 17
19 12 5 8 2 3 5 4 6 6 1 6 10 13 17 12 9 14 14 14 12 11 13 17 20 18 15 11 13 11 12 11 13 12 14 3 7 9 15 8 6 8 12 14 14
12 7 5 4 4 6 4 7 6 7 5 5 5 4 11 7 11 8 10 12 15 11 10 11 11 8 2 7 13 15 11 8 12 13 16 20 9 1 5 2 5 6 5 13 14
5 4 1 3 2 5 11 7 6 7 6 7 8 10 12 9 5 7 11 10 10 2 8 4 10 1 5 6 7 7 8 5 10 12 13 14 15 12 9 6 5 7 7 9 15
5 2 1 2 3 5 8 3 3 3 7 7 11 4 7 7 7 5 6 5 8 3 5 6 12 15 8 6 10 9 12 7 6 5 8 7 10 7 6 5 11 9 9 14 15
3 7 2 4 4 9 6 5 3 3 8 7 10 11 13 12 7 9 7 4 6 8 8 10 11 14 7 10 14 7 11 9 7 7 5 8 5 9 10 11 12 13 16 21 21
4 5 3 2 9 2 5 3 3 8 6 7 8 12 11 13 14 15 13 9 2 5 7 9 6 12 15 14 6 9 13 11 9 9 9 12 14 12 1 10 13 15 17 21 19
8 6 5 2 5 3 3 7 5 8 7 5 9 8 8 12 9 11 11 12 12 10 2 3 7 10 10 16 11 11 14 12 11 11 15 13 12 14 14 15 17 19 19 19 20
7 3 4 0 1 5 5 8 5 5 7 5 11 14 12 13 10 8 8 3 5 9 5 5 11 12 9 2 6 9 10 14 14 11 15 17 21 17 16 16 18 22 20 24 26
4 2 3 2 4 6 5 6 7 6 3 6 6 7 7 5 9 13 11 14 10 6 7 5 14 15 16 19 18 18 16 15 18 18 18 20 22 21 20 18 17 18 22 27 31
8 7 2 7 4 5 4 2 4 2 3 1 3 11 6 10 8 14 13 9 9 7 10 7 10 13 15 18 20 18 18 19 21 20 21 22 23 20 13 20 21 26 29 31 34
4 5 7 2 4 5 1 1 0 4 6 4 5 5 9 10 13 17 16 16 12 8 6 8 7 6 14 15 17 12 17 17 20 18 15 15 16 17 16 18 23 30 35 36 37
Wind_Direction
18 11 6 2 358 354 350 342 331 324 313 309 297 297 298 298 298 283 260 237 233 231 187 189 199 203 209 218 216 224 238 237 245 243 251 288 235 249 255 281 257 260 272 290 311
17 17 11 3 358 353 351 346 338 331 317 314 308 306 312 308 299 276 248 240 223 192 177 190 193 194 208 214 203 218 227 233 236 252 242 245 266 262 238 233 254 254 255 264 270
14 11 9 6 357 349 344 345 343 340 329 321 318 312 318 318 304 8 229 226 199 179 169 194 194 194 211 211 204 215 239 224 243 288 266 264 245 260 268 260 261 270 273 271 264
8 7 7 360 357 348 340 334 341 347 343 332 328 318 315 332 330 328 282 220 185 164 191 195 191 197 216 210 209 233 225 253 261 233 232 252 262 257 253 264 271 268 266 266 262
354 355 355 356 353 349 336 326 319 329 340 338 336 325 317 253 267 321 125 173 165 172 193 190 190 200 214 208 213 218 241 231 247 250 245 255 256 259 258 259 259 262 264 259 257
337 340 343 345 347 344 340 314 308 312 319 328 326 316 281 256 9 155 126 147 163 176 189 192 197 208 237 227 204 207 240 238 236 242 241 252 260 254 250 237 255 247 256 263 260
328 332 334 336 338 344 332 321 295 301 306 308 308 302 264 241 186 181 168 163 184 186 192 202 221 193 222 208 220 232 235 230 238 231 237 249 268 256 247 243 248 258 259 262 264
326 328 330 332 333 335 332 323 291 292 300 294 282 271 258 202 186 191 185 202 179 182 199 191 203 225 221 153 197 229 228 246 217 211 223 212 265 260 151 228 246 246 251 251 260
326 325 328 327 329 330 332 321 290 292 287 271 325 220 254 223 191 186 186 172 170 173 175 192 208 218 207 213 214 206 243 213 184 184 237 201 273 284 241 244 263 267 264 262 260
326 325 324 324 325 325 327 315 290 290 260 207 251 255 238 210 180 184 187 192 184 184 191 210 219 219 218 216 232 239 207 249 244 182 201 252 258 261 269 264 266 273 270 267 265
329 324 320 321 320 321 319 315 246 198 220 226 300 270 127 137 171 184 187 190 201 206 224 201 225 220 235 222 272 326 297 295 282 251 282 273 273 278 279 275 269 268 273 272 264
334 327 321 317 317 316 300 220 343 329 295 232 242 239 223 186 188 189 184 197 203 217 217 204 235 255 251 288 264 254 259 257 255 254 261 272 272 273 272 270 270 270 274 273 274
338 332 318 316 316 308 238 236 286 315 267 152 209 218 206 204 210 179 195 208 198 226 215 245 43 51 262 223 240 236 256 265 274 300 286 268 260 248 247 259 254 246 254 267 271
339 327 320 320 342 295 279 246 261 301 263 140 180 173 185 192 235 199 198 203 230 241 229 238 247 187 211 239 220 258 245 287 274 269 277 319 293 284 267 253 249 252 272 288 291
343 338 340 322 238 58 277 300 287 280 244 140 119 154 175 192 129 196 200 223 252 222 259 227 215 214 240 244 258 275 320 287 278 279 279 272 265 272 279 264 279 358 334 323 303
347 355 10 45 51 229 318 306 292 233 188 126 136 161 172 208 188 158 197 224 252 277 228 271 250 257 273 313 294 299 286 270 268 266 263 263 258 268 298 9 356 346 322 311 318
348 6 50 105 40 323 312 263 240 275 120 151 151 179 188 182 168 172 187 203 232 211 237 240 239 235 220 263 259 225 270 271 261 241 248 14 318 297 317 42 2 317 312 313 313
345 5 59 81 328 316 306 248 265 30 9 29 291 229 225 166 223 192 222 241 224 270 284 292 261 321 116 263 292 292 291 271 290 286 300 328 299 156 119 96 162 296 329 318 319
343 355 80 294 341 328 277 245 18 11 9 322 297 257 213 201 277 202 252 250 249 171 247 270 259 92 267 284 262 329 238 309 296 289 269 258 251 225 129 203 154 250 322 317 304
320 283 315 242 300 304 264 307 332 1 323 301 285 339 295 243 208 236 250 292 243 255 277 264 278 260 223 251 247 264 312 272 234 262 279 285 322 284 10 4 303 323 315 285 304
357 259 334 241 284 250 271 36 318 49 332 331 331 313 304 293 242 239 230 229 227 244 246 249 249 269 250 223 254 179 237 224 267 230 241 291 270 18 3 348 331 321 300 305 317
285 259 347 312 251 195 288 41 26 277 291 281 281 281 289 296 296 284 264 220 227 274 261 271 265 253 254 276 322 304 292 265 217 243 237 246 269 282 269 254 259 288 305 312 308
297 290 311 279 273 202 88 274 244 289 313 305 301 297 298 299 301 276 287 270 241 228 257 257 237 249 258 240 213 248 244 241 258 260 268 276 276 282 288 283 307 307 312 320 306
292 260 161 272 20 307 329 275 272 132 292 319 305 302 303 297 291 278 298 321 232 223 105 297 258 256 257 196 215 235 240 256 247 246 253 250 267 291 302 314 310 303 314 301 296
282 80 339 291 117 319 284 287 279 284 359 320 288 352 358 282 269 261 274 289 261 191 232 222 263 262 274 276 279 272 269 256 248 256 264 278 288 299 303 303 309 313 313 314 310
314 328 220 270 272 280 150 109 301 352 285 250 288 328 308 279 301 302 302 313 275 283 245 216 260 269 267 267 268 267 265 261 264 265 268 275 279 278 318 312 326 329 316 307 308
321 282 280 131 198 259 331 338 142 280 281 275 312 295 294 293 296 289 293 273 259 288 277 255 247 250 259 261 267 268 262 257 244 252 271 283 309 327 318 335 326 316 311 307 303